EW1440 Weather Reports


Display with metric or nautical units.
time (UTC)temp
F
wind
direction
speed
MPH
gust
MPH
rain 1hr
in
rain 24hr
in
rain mn
in
humidity
%
barometer
mb
20260902053056 82 138 4.0 9.0 0.00 0.00 0.00 63 1015.5
20260902052533 82 137 5.0 9.0 0.00 0.00 0.00 64 1015.5
20260902052033 82 145 5.0 10.0 0.00 0.00 0.00 64 1015.5
20260902051601 82 142 5.0 12.0 0.00 0.00 0.00 64 1015.5
20260902051033 82 141 5.0 12.0 0.00 0.00 0.00 64 1015.5
20260902050533 82 140 5.0 11.0 0.00 0.00 0.00 64 1015.5
20260902045538 81 160 6.0 10.0 0.00 0.00 0.00 65 1015.4
20260902045032 81 145 4.0 9.0 0.00 0.00 0.00 66 1015.4
20260902044557 81 145 5.0 10.0 0.00 0.00 0.00 67 1015.4
20260902044035 81 128 4.0 10.0 0.00 0.00 0.00 68 1015.4
20260902043533 80 153 4.0 10.0 0.00 0.00 0.00 68 1015.3
20260902043057 80 126 4.0 10.0 0.00 0.00 0.00 69 1015.3
20260902042533 80 143 4.0 8.0 0.00 0.00 0.00 69 1015.3
20260902042032 79 147 4.0 8.0 0.00 0.00 0.00 69 1015.3
20260902041609 79 145 3.0 8.0 0.00 0.00 0.00 69 1015.3
20260902041032 78 120 3.0 7.0 0.00 0.00 0.00 68 1015.2
20260902040533 78 144 2.0 7.0 0.00 0.00 0.00 66 1015.2
20260902040100 78 108 3.0 6.0 0.00 0.00 0.00 65 1015.2
20260902035532 78 104 1.0 4.0 0.00 0.00 0.00 65 1015.0
20260902035033 78 113 1.0 4.0 0.00 0.00 0.00 64 1015.0
20260902034558 78 113 1.0 6.0 0.00 0.00 0.00 64 1015.0
20260902034034 78 103 2.0 8.0 0.00 0.00 0.00 63 1014.9
20260902033535 78 83 2.0 8.0 0.00 0.00 0.00 63 1014.8
20260902033058 78 65 4.0 8.0 0.00 0.00 0.00 62 1014.7
20260902032537 79 0 0.0 0.0 0.00 0.00 0.00 62 1014.4
20260902032034 79 0 0.0 0.0 0.00 0.00 0.00 61 1014.4
20260902031602 79 0 0.0 0.0 0.00 0.00 0.00 61 1014.4
20260902031033 79 0 0.0 0.0 0.00 0.00 0.00 60 1014.4
20260902030533 80 0 0.0 0.0 0.00 0.00 0.00 60 1014.3
20260902030054 80 0 0.0 0.0 0.00 0.00 0.00 60 1014.2
20260902025533 80 0 0.0 1.0 0.00 0.00 0.00 59 1014.3
20260902025034 80 0 0.0 1.0 0.00 0.00 0.00 58 1014.1
20260902024555 81 0 0.0 1.0 0.00 0.00 0.00 58 1014.1
20260902024032 81 143 0.0 2.0 0.00 0.00 0.00 57 1014.1
20260902023533 81 143 0.0 2.0 0.00 0.00 0.00 57 1014.0
20260902023052 82 0 0.0 2.0 0.00 0.00 0.00 56 1013.9
20260902022534 82 0 0.0 2.0 0.00 0.00 0.00 55 1013.9
20260902022033 82 143 1.0 2.0 0.00 0.00 0.00 55 1013.8
20260902021558 83 143 1.0 2.0 0.00 0.00 0.00 54 1013.8
20260902021033 83 143 1.0 2.0 0.00 0.00 0.00 54 1013.7
20260902020533 84 143 0.0 2.0 0.00 0.00 0.00 53 1013.6
20260902020058 84 143 1.0 2.0 0.00 0.00 0.00 52 1013.4
20260902015533 85 143 1.0 2.0 0.00 0.00 0.00 51 1013.3
20260902015036 85 143 1.0 2.0 0.00 0.00 0.00 51 1013.2
20260902014556 86 143 1.0 2.0 0.00 0.00 0.00 50 1013.2
20260902014036 87 143 0.0 1.0 0.00 0.00 0.00 49 1013.3
20260902013537 87 0 0.0 1.0 0.00 0.00 0.00 49 1013.3
20260902013051 88 0 0.0 1.0 0.00 0.00 0.00 48 1013.1
20260902012535 88 0 0.0 1.0 0.00 0.00 0.00 48 1013.0
20260902012035 89 0 0.0 2.0 0.00 0.00 0.00 47 1013.0
20260902011549 90 143 0.0 2.0 0.00 0.00 0.00 47 1013.0
20260902011034 90 143 1.0 2.0 0.00 0.00 0.00 46 1013.0
20260902010535 91 141 1.0 2.0 0.00 0.00 0.00 44 1013.0
20260902010057 91 141 1.0 2.0 0.00 0.00 0.00 44 1012.9
20260902005534 92 0 0.0 3.0 0.00 0.00 0.00 44 1013.0
20260902005037 92 0 1.0 3.0 0.00 0.00 0.00 43 1013.0
20260902004558 93 0 0.0 3.0 0.00 0.00 0.00 42 1013.0
20260902004033 93 112 0.0 3.0 0.00 0.00 0.00 41 1013.1
20260902003533 93 112 1.0 4.0 0.00 0.00 0.00 40 1012.9
20260902003106 93 112 1.0 8.0 0.00 0.00 0.00 39 1013.0
20260902002536 93 112 3.0 8.0 0.00 0.00 0.00 39 1013.0
20260902002036 93 132 3.0 8.0 0.00 0.00 0.00 38 1012.9
20260902001554 93 84 2.0 7.0 0.00 0.00 0.00 40 1013.0
20260902001038 93 97 3.0 8.0 0.00 0.00 0.00 40 1012.9
20260902000533 94 93 3.0 8.0 0.00 0.00 0.00 39 1012.9
20260902000115 94 84 3.0 8.0 0.00 0.00 0.00 38 1013.0
20260901235533 94 128 4.0 12.0 0.00 0.00 0.00 38 1012.9
20260901235035 95 110 5.0 12.0 0.00 0.00 0.00 39 1013.0
20260901234557 95 97 5.0 10.0 0.00 0.00 0.00 39 1013.1
20260901234034 95 103 4.0 15.0 0.00 0.00 0.00 38 1013.1
20260901233535 96 151 6.0 15.0 0.00 0.00 0.00 37 1013.0
20260901233054 96 116 3.0 9.0 0.00 0.00 0.00 38 1013.0
20260901232534 96 80 3.0 9.0 0.00 0.00 0.00 37 1013.0
20260901232038 96 135 4.0 9.0 0.00 0.00 0.00 37 1013.0
20260901231557 96 104 4.0 14.0 0.00 0.00 0.00 37 1013.1
20260901231034 96 0 2.0 14.0 0.00 0.00 0.00 37 1013.1
20260901230533 96 106 7.0 14.0 0.00 0.00 0.00 37 1013.0
20260901230114 97 117 6.0 13.0 0.00 0.00 0.00 36 1013.1
20260901225535 97 80 6.0 13.0 0.00 0.00 0.00 36 1013.0
20260901225032 97 78 6.0 13.0 0.00 0.00 0.00 35 1013.1
20260901224550 97 117 5.0 9.0 0.00 0.00 0.00 35 1013.0
20260901224032 97 91 3.0 11.0 0.00 0.00 0.00 35 1013.0
20260901223535 98 101 4.0 11.0 0.00 0.00 0.00 36 1013.1
20260901223114 98 89 5.0 11.0 0.00 0.00 0.00 35 1013.1
20260901222534 98 33 2.0 9.0 0.00 0.00 0.00 36 1013.1
20260901222036 100 0 1.0 12.0 0.00 0.00 0.00 31 1013.1
20260901221558 99 66 6.0 12.0 0.00 0.00 0.00 33 1013.2
20260901221033 99 93 6.0 12.0 0.00 0.00 0.00 33 1013.2
20260901220534 99 83 6.0 11.0 0.00 0.00 0.00 34 1013.2
20260901220127 101 228 3.0 13.0 0.00 0.00 0.00 30 1013.2
20260901215533 101 111 4.0 13.0 0.00 0.00 0.00 31 1013.3
20260901215033 102 137 4.0 11.0 0.00 0.00 0.00 30 1013.3
20260901214549 103 97 4.0 11.0 0.00 0.00 0.00 31 1013.3
20260901214035 102 157 3.0 14.0 0.00 0.00 0.00 30 1013.4
20260901213533 102 165 5.0 14.0 0.00 0.00 0.00 30 1013.5
20260901213115 102 122 6.0 13.0 0.00 0.00 0.00 30 1013.4
20260901212533 102 109 7.0 14.0 0.00 0.00 0.00 32 1013.5
20260901212033 102 167 4.0 16.0 0.00 0.00 0.00 30 1013.5
20260901211602 102 185 6.0 16.0 0.00 0.00 0.00 30 1013.6
20260901211032 102 139 2.0 8.0 0.00 0.00 0.00 31 1013.7
20260901210534 102 22 4.0 13.0 0.00 0.00 0.00 31 1013.8
20260901205533 102 108 6.0 16.0 0.00 0.00 0.00 30 1014.0
20260901205035 102 116 8.0 15.0 0.00 0.00 0.00 29 1014.1
20260901204609 102 137 8.0 15.0 0.00 0.00 0.00 30 1014.2
20260901204035 102 116 5.0 17.0 0.00 0.00 0.00 31 1014.1
20260901203533 102 110 4.0 17.0 0.00 0.00 0.00 32 1014.3
20260901203101 102 168 7.0 16.0 0.00 0.00 0.00 31 1014.3
20260901202533 102 116 4.0 12.0 0.00 0.00 0.00 31 1014.4
20260901202041 102 141 6.0 12.0 0.00 0.00 0.00 31 1014.5
20260901201558 102 199 4.0 11.0 0.00 0.00 0.00 31 1014.6
20260901201035 101 186 4.0 14.0 0.00 0.00 0.00 31 1014.7
20260901200535 101 107 5.0 15.0 0.00 0.00 0.00 32 1014.8
20260901200057 102 177 6.0 15.0 0.00 0.00 0.00 31 1014.9
20260901195533 101 222 4.0 15.0 0.00 0.00 0.00 30 1014.9
20260901195039 102 118 4.0 14.0 0.00 0.00 0.00 30 1015.0
20260901194554 102 137 7.0 14.0 0.00 0.00 0.00 32 1015.1
20260901194033 102 151 5.0 11.0 0.00 0.00 0.00 31 1015.1
20260901193534 101 232 2.0 9.0 0.00 0.00 0.00 32 1015.1
20260901193058 101 62 5.0 17.0 0.00 0.00 0.00 33 1015.1
20260901192534 101 143 7.0 17.0 0.00 0.00 0.00 32 1015.3
20260901192036 100 116 8.0 15.0 0.00 0.00 0.00 33 1015.3
20260901191558 100 152 5.0 11.0 0.00 0.00 0.00 34 1015.3
20260901191033 100 161 2.0 7.0 0.00 0.00 0.00 34 1015.4
20260901190534 99 149 2.0 12.0 0.00 0.00 0.00 35 1015.4
20260901185533 99 76 5.0 16.0 0.00 0.00 0.00 35 1015.6
20260901185035 99 175 8.0 16.0 0.00 0.00 0.00 35 1015.8
20260901184558 99 145 4.0 16.0 0.00 0.00 0.00 35 1015.9
20260901184033 99 241 4.0 16.0 0.00 0.00 0.00 35 1015.9
20260901183534 99 118 8.0 14.0 0.00 0.00 0.00 36 1015.9
20260901183102 99 169 5.0 13.0 0.00 0.00 0.00 35 1016.0
20260901182532 99 211 7.0 13.0 0.00 0.00 0.00 35 1016.0
20260901182036 99 140 7.0 13.0 0.00 0.00 0.00 34 1016.2
20260901181602 98 144 7.0 13.0 0.00 0.00 0.00 36 1016.3
20260901181037 98 110 5.0 13.0 0.00 0.00 0.00 37 1016.3
20260901180534 98 206 4.0 14.0 0.00 0.00 0.00 38 1016.4
20260901180100 97 112 5.0 15.0 0.00 0.00 0.00 37 1016.5
20260901175534 97 142 7.0 15.0 0.00 0.00 0.00 38 1016.5
20260901175034 97 153 6.0 15.0 0.00 0.00 0.00 37 1016.7
20260901174558 97 95 4.0 12.0 0.00 0.00 0.00 40 1016.6
20260901174033 96 92 5.0 12.0 0.00 0.00 0.00 37 1016.8
20260901173538 96 159 6.0 12.0 0.00 0.00 0.00 39 1016.8
20260901173105 96 125 6.0 12.0 0.00 0.00 0.00 40 1017.0
20260901172535 96 139 2.0 15.0 0.00 0.00 0.00 41 1017.2
20260901172033 96 204 5.0 15.0 0.00 0.00 0.00 38 1017.3
20260901171558 95 164 4.0 12.0 0.00 0.00 0.00 41 1017.3
20260901171032 95 118 8.0 12.0 0.00 0.00 0.00 43 1017.4
20260901170534 95 60 2.0 11.0 0.00 0.00 0.00 45 1017.3
20260901170107 94 95 6.0 12.0 0.00 0.00 0.00 46 1017.3
20260901165533 94 186 6.0 12.0 0.00 0.00 0.00 46 1017.4
20260901165037 93 193 5.0 17.0 0.00 0.00 0.00 48 1017.3
20260901164600 92 103 8.0 17.0 0.00 0.00 0.00 50 1017.3
20260901164032 92 143 7.0 16.0 0.00 0.00 0.00 52 1017.3
20260901163533 91 101 5.0 14.0 0.00 0.00 0.00 52 1017.4
20260901163054 90 126 5.0 13.0 0.00 0.00 0.00 52 1017.3
20260901162533 90 95 7.0 13.0 0.00 0.00 0.00 51 1017.4
20260901162034 91 123 6.0 14.0 0.00 0.00 0.00 53 1017.4
20260901161601 90 157 5.0 16.0 0.00 0.00 0.00 54 1017.4
20260901161034 90 143 7.0 16.0 0.00 0.00 0.00 53 1017.4
20260901160532 90 149 4.0 13.0 0.00 0.00 0.00 56 1017.3
20260901160104 89 175 4.0 13.0 0.00 0.00 0.00 54 1017.4
20260901155535 88 145 6.0 11.0 0.00 0.00 0.00 56 1017.4
20260901155038 89 146 6.0 10.0 0.00 0.00 0.00 58 1017.3
20260901154557 88 124 4.0 10.0 0.00 0.00 0.00 58 1017.2
20260901154035 88 162 5.0 11.0 0.00 0.00 0.00 59 1017.2
20260901153536 87 77 5.0 11.0 0.00 0.00 0.00 59 1017.3
20260901153106 87 158 2.0 11.0 0.00 0.00 0.00 63 1017.3
20260901152535 87 110 6.0 11.0 0.00 0.00 0.00 64 1017.3
20260901152032 86 119 3.0 11.0 0.00 0.00 0.00 65 1017.3
20260901151612 86 141 6.0 11.0 0.00 0.00 0.00 65 1017.3
20260901151033 85 188 6.0 11.0 0.00 0.00 0.00 64 1017.2
20260901150534 84 246 2.0 11.0 0.00 0.00 0.00 66 1017.2
20260901150059 85 136 5.0 11.0 0.00 0.00 0.00 66 1017.2
20260901145534 85 152 3.0 9.0 0.00 0.00 0.00 69 1017.2
20260901145032 84 94 5.0 9.0 0.00 0.00 0.00 71 1017.2
20260901144600 83 145 2.0 8.0 0.00 0.00 0.00 73 1017.3
20260901144038 83 145 4.0 8.0 0.00 0.00 0.00 72 1017.3
20260901143533 83 141 3.0 7.0 0.00 0.00 0.00 74 1017.2
20260901143103 83 103 2.0 8.0 0.00 0.00 0.00 76 1017.2
20260901142532 82 151 2.0 8.0 0.00 0.00 0.00 76 1017.2
20260901142035 81 163 1.0 7.0 0.00 0.00 0.00 79 1017.2
20260901141602 80 85 3.0 7.0 0.00 0.00 0.00 84 1017.2
20260901141033 79 93 2.0 7.0 0.00 0.00 0.00 88 1017.2
20260901140533 77 60 2.0 7.0 0.00 0.00 0.00 92 1017.2
20260901140106 77 102 2.0 7.0 0.00 0.00 0.00 92 1017.2
20260901135534 77 97 3.0 7.0 0.00 0.00 0.00 92 1017.2
20260901135033 77 110 2.0 7.0 0.00 0.00 0.00 92 1017.1
20260901134611 76 92 3.0 7.0 0.00 0.00 0.00 92 1017.1
20260901134034 76 122 2.0 5.0 0.00 0.00 0.00 92 1017.1
20260901133534 76 130 2.0 5.0 0.00 0.00 0.00 92 1017.0
20260901133100 75 95 0.0 3.0 0.00 0.00 0.00 92 1017.0
20260901132534 75 95 2.0 3.0 0.00 0.00 0.00 92 1017.0
20260901132036 75 30 0.0 3.0 0.00 0.00 0.00 92 1017.1
20260901131558 74 0 0.0 2.0 0.00 0.00 0.00 91 1017.1
20260901131037 73 158 0.0 1.0 0.00 0.00 0.00 91 1017.1
20260901130534 73 0 0.0 0.0 0.00 0.00 0.00 90 1017.1
20260901130056 73 0 0.0 1.0 0.00 0.00 0.00 89 1017.0
20260901125535 72 0 0.0 2.0 0.00 0.00 0.00 89 1017.0
20260901125034 72 0 0.0 2.0 0.00 0.00 0.00 88 1017.0
20260901124602 72 0 0.0 2.0 0.00 0.00 0.00 87 1016.9
20260901124035 72 0 0.0 1.0 0.00 0.00 0.00 87 1016.8
20260901123534 72 0 0.0 1.0 0.00 0.00 0.00 86 1016.7
20260901123058 72 0 0.0 1.0 0.00 0.00 0.00 86 1016.7
20260901122534 72 0 0.0 2.0 0.00 0.00 0.00 86 1016.7
20260901122034 72 0 0.0 2.0 0.00 0.00 0.00 86 1016.8
20260901121556 72 0 0.0 2.0 0.00 0.00 0.00 86 1016.7
20260901121033 72 158 0.0 1.0 0.00 0.00 0.00 86 1016.6
20260901120534 73 0 0.0 0.0 0.00 0.00 0.00 86 1016.7
20260901120059 73 0 0.0 0.0 0.00 0.00 0.00 86 1016.7
20260901115534 73 0 0.0 0.0 0.00 0.00 0.00 85 1016.6
20260901115033 73 0 0.0 0.0 0.00 0.00 0.00 85 1016.7
20260901114558 73 0 0.0 0.0 0.00 0.00 0.00 85 1016.6
20260901114033 74 0 0.0 2.0 0.00 0.00 0.00 85 1016.5
20260901113533 74 0 0.0 2.0 0.00 0.00 0.00 85 1016.5
20260901113052 74 158 1.0 2.0 0.00 0.00 0.00 85 1016.5
20260901112537 74 158 0.0 2.0 0.00 0.00 0.00 85 1016.5
20260901112034 75 0 0.0 0.0 0.00 0.00 0.00 85 1016.5
20260901111559 75 0 0.0 0.0 0.00 0.00 0.00 85 1016.4
20260901111034 75 0 0.0 2.0 0.00 0.00 0.00 85 1016.5
20260901110533 75 0 0.0 2.0 0.00 0.00 0.00 85 1016.5
20260901110100 75 0 0.0 2.0 0.00 0.00 0.00 85 1016.6
20260901105533 76 0 0.0 0.0 0.00 0.00 0.00 85 1016.5
20260901105036 76 0 0.0 0.0 0.00 0.00 0.00 85 1016.6
20260901104558 76 0 0.0 0.0 0.00 0.00 0.00 85 1016.5
20260901104037 76 0 0.0 0.0 0.00 0.00 0.00 85 1016.5
20260901103533 77 0 0.0 0.0 0.00 0.00 0.00 85 1016.6
20260901103054 77 0 0.0 3.0 0.00 0.00 0.00 85 1016.7
20260901102533 77 0 0.0 3.0 0.00 0.00 0.00 86 1016.6
20260901102033 77 158 0.0 2.0 0.00 0.00 0.00 86 1016.6
20260901101549 77 0 0.0 2.0 0.00 0.00 0.00 86 1016.5
20260901101035 78 0 0.0 3.0 0.00 0.00 0.00 86 1016.6
20260901100533 78 158 0.0 3.0 0.00 0.00 0.00 86 1016.6
20260901100100 78 158 1.0 5.0 0.00 0.00 0.00 86 1016.5
20260901095532 78 130 1.0 5.0 0.00 0.00 0.00 86 1016.6
20260901095032 78 159 2.0 5.0 0.00 0.00 0.00 86 1016.6
20260901094557 78 146 2.0 6.0 0.00 0.00 0.00 86 1016.6
20260901094040 78 137 2.0 6.0 0.00 0.00 0.00 86 1016.6
20260901093537 78 135 2.0 8.0 0.00 0.00 0.00 86 1016.6
20260901093054 78 153 2.0 9.0 0.00 0.00 0.00 86 1016.8
20260901092533 78 183 4.0 9.0 0.00 0.00 0.00 86 1016.8
20260901092033 78 137 2.0 8.0 0.00 0.00 0.00 86 1016.9
20260901091558 78 164 3.0 8.0 0.00 0.00 0.00 86 1016.8
20260901091032 78 147 2.0 5.0 0.00 0.00 0.00 85 1016.8
20260901090532 78 140 1.0 4.0 0.00 0.00 0.00 85 1016.9
20260901090105 78 116 1.0 3.0 0.00 0.00 0.00 85 1016.8
20260901085532 78 167 0.0 4.0 0.00 0.00 0.00 84 1016.8
20260901085032 78 145 1.0 4.0 0.00 0.00 0.00 84 1016.8
20260901084556 78 0 0.0 3.0 0.00 0.00 0.00 84 1016.8
20260901084033 78 133 1.0 4.0 0.00 0.00 0.00 84 1016.8
20260901083537 78 133 2.0 5.0 0.00 0.00 0.00 83 1016.7
20260901083052 78 148 2.0 6.0 0.00 0.00 0.00 83 1016.6
20260901082534 78 147 2.0 6.0 0.00 0.00 0.00 83 1016.5
20260901082037 78 133 2.0 6.0 0.00 0.00 0.00 83 1016.6
20260901081600 78 144 2.0 6.0 0.00 0.00 0.00 83 1016.6
20260901081033 78 152 2.0 5.0 0.00 0.00 0.00 82 1016.7
20260901080533 78 130 2.0 5.0 0.00 0.00 0.00 82 1016.7
20260901080059 78 120 1.0 4.0 0.00 0.00 0.00 82 1016.7
20260901075533 78 121 1.0 4.0 0.00 0.00 0.00 81 1016.8
20260901075032 78 161 1.0 4.0 0.00 0.00 0.00 81 1016.8
20260901074600 79 120 2.0 4.0 0.00 0.00 0.00 80 1016.7
20260901074032 79 120 1.0 5.0 0.00 0.00 0.00 80 1016.7
20260901073534 79 120 1.0 5.0 0.00 0.00 0.00 79 1016.6
20260901073047 79 141 1.0 5.0 0.00 0.00 0.00 79 1016.7
20260901072533 79 120 1.0 3.0 0.00 0.00 0.00 79 1016.7
20260901072032 79 120 0.0 5.0 0.00 0.00 0.00 79 1016.7
20260901071557 79 116 1.0 5.0 0.00 0.00 0.00 79 1016.7
20260901071034 79 132 2.0 7.0 0.00 0.00 0.00 78 1016.7
20260901070537 79 138 2.0 7.0 0.00 0.00 0.00 78 1016.6
20260901070104 80 133 2.0 7.0 0.00 0.00 0.00 77 1016.5
20260901065533 80 124 3.0 7.0 0.00 0.00 0.00 77 1016.5
20260901065033 80 118 4.0 9.0 0.00 0.00 0.00 77 1016.5
20260901064603 80 151 2.0 10.0 0.00 0.00 0.00 77 1016.5
20260901064034 80 155 5.0 10.0 0.00 0.00 0.00 76 1016.6
20260901063533 80 196 2.0 10.0 0.00 0.00 0.00 76 1016.5
20260901063102 80 147 3.0 10.0 0.00 0.00 0.00 76 1016.4
20260901062535 81 170 5.0 11.0 0.00 0.00 0.00 75 1016.5
20260901062033 81 155 6.0 11.0 0.00 0.00 0.00 75 1016.4
20260901061559 81 148 6.0 11.0 0.00 0.00 0.00 74 1016.3
20260901061034 81 155 7.0 12.0 0.00 0.00 0.00 74 1016.3
20260901060535 81 163 5.0 12.0 0.00 0.00 0.00 73 1016.3
20260901060059 81 143 5.0 12.0 0.00 0.00 0.00 73 1016.3
20260901055533 81 153 5.0 9.0 0.00 0.00 0.00 72 1016.3
20260901055035 82 134 5.0 9.0 0.00 0.00 0.00 71 1016.2
20260901054554 82 178 4.0 9.0 0.00 0.00 0.00 71 1016.2
20260901054033 82 158 5.0 9.0 0.00 0.00 0.00 70 1016.1
20260901053536 82 147 5.0 10.0 0.00 0.00 0.00 70 1016.1